[[{"header":{"parameterUnit":"m.s-1","parameterCategory":2,"la1":30.2991,"la2":30.254,"lo1":-89.0895,"lo2":-89.0444,"dy":0.0017,"dx":0.0017,"nx":28,"ny":28,"refTime":"2024-07-16T03:00:00:Z","depth":"0","parameterNumber":2,"parameterNumberName":"U-component_of_CURRENTS"},"data":[0,0,0,0,0,0,0,0,0,0,0,0,0,0,0,0,0,0,0,0,0,0,0,0,0,0,0,0,0,0,0,0,0,0,0,0,0,0,0,0,0,0,0,0,0,0,0,0,0,0,0,0,0,0,0,0,0,0,0.2841,0.2842,0,0.2932,0.2934,0.2935,0.2932,0.293,0.2928,0.2927,0.2897,0.2898,0.2899,0,0,0,0,0,0,0,0,0,0,0,0,0,0.2713,0.2715,0.2841,0.2842,0.2842,0.2932,0.2934,0.2935,0.2932,0.293,0.2928,0.2926,0.2897,0.2898,0.2899,0,0,0,0,0,0,0,0,0,0,0,0,0,0.2786,0.2716,0.2841,0.2849,0.285,0.2932,0.2934,0.2936,0.2932,0.293,0.2927,0.2925,0.2897,0.2898,0.2899,0.2953,0,0,0.2902,0.2903,0,0,0,0,0,0,0,0,0.2782,0.2791,0.2847,0.2849,0.285,0.2915,0.2878,0.2934,0.2933,0.2905,0.2927,0.2924,0.2892,0.2893,0.2922,0.2952,0.2951,0.2902,0.2903,0.2903,0.2904,0,0,0,0,0,0,0,0.2777,0.2787,0.288,0.2848,0.285,0.2865,0.2873,0.289,0.2911,0.2907,0.2906,0.2912,0.2892,0.2921,0.2921,0.295,0.2902,0.2903,0.2904,0.2904,0.3037,0.304,0,0,0,0,0,0,0.2759,0.2783,0.2877,0.2883,0.2806,0.2869,0.2878,0.2899,0.2913,0.2913,0.2914,0.2911,0.2921,0.292,0.292,0.3022,0.2903,0.2904,0.2905,0.3034,0.3038,0.3041,0,0,0,0,0,0,0.2757,0.2768,0.2874,0.2831,0.2845,0.2873,0.2898,0.2902,0.2936,0.2919,0.2917,0.2941,0.2919,0.2918,0.2961,0.3018,0.2905,0.2906,0.3031,0.3035,0.3039,0.3201,0,0,0,0,0,0,0.2753,0.2767,0.2787,0.283,0.2846,0.2932,0.29,0.2906,0.294,0.2938,0.2942,0.2937,0.2917,0.296,0.2962,0.3018,0.2907,0.3027,0.3033,0.3038,0.3192,0.3211,0.3226,0,0,0,0,0,0.2748,0.2808,0.2788,0.2799,0.2871,0.2933,0.2945,0.2957,0.2944,0.2976,0.2985,0.2937,0.2995,0.2964,0.2966,0.3023,0.3024,0.3031,0.3037,0.3185,0.3207,0.3226,0,0,0,0,0,0,0.2769,0.2814,0.2793,0.2861,0.2886,0.2931,0.2966,0.2973,0.3012,0.3002,0.2984,0.2983,0.3046,0.3012,0.2979,0.3076,0.2998,0.3005,0.311,0.313,0.3147,0.3135,0.2907,0,0,0,0,0,0.2778,0.2827,0.2853,0.2903,0.2915,0.2939,0.2967,0.2974,0.3006,0.3021,0.3035,0.3043,0.3079,0.3083,0.3106,0.3159,0.3118,0.3192,0.321,0.3224,0.3216,0.3268,0.3289,0.3062,0.3062,0.3062,0,0,0.2796,0.2827,0.2852,0.2909,0.2926,0.2978,0.2952,0.3001,0.3055,0.3011,0.3099,0.3112,0.311,0.3182,0.3204,0.3155,0.3259,0.3233,0.3245,0.3228,0.3277,0.3299,0.3319,0.3066,0.3066,0.3065,0,0,0.2862,0.288,0.2936,0.2956,0.2986,0.3018,0.3033,0.3085,0.3116,0.3198,0.3188,0.324,0.3286,0.3309,0.3321,0.3443,0.3361,0.3438,0.3505,0.3558,0.3576,0.3593,0.3532,0.3542,0.3433,0.3434,0.3434,0,0.2876,0.2933,0.2962,0.3005,0.3021,0.3038,0.3083,0.3144,0.3211,0.3241,0.3237,0.335,0.3355,0.344,0.3484,0.3484,0.3453,0.3431,0.3581,0.3596,0.361,0.3544,0.3552,0.3442,0.3441,0.3441,0.344,0,0.2978,0.2996,0.3031,0.3088,0.313,0.3166,0.3225,0.3287,0.3329,0.3375,0.3478,0.3519,0.3566,0.3597,0.3579,0.3681,0.3604,0.3611,0.3529,0.3643,0.3565,0.3571,0.3455,0.3452,0.3449,0.3447,0,0,0.3019,0.309,0.3079,0.3082,0.3156,0.3192,0.3303,0.3387,0.3433,0.354,0.3611,0.3726,0.373,0.3742,0.3744,0.3791,0.3865,0.3739,0.3738,0.3675,0.3897,0.3601,0.3577,0.3904,0.3907,0.391,0.3789,0,0.3055,0.3132,0.317,0.3217,0.3244,0.3285,0.3374,0.3456,0.3531,0.3614,0.3695,0.3766,0.3792,0.3805,0.3879,0.3869,0.3894,0.3891,0.3796,0.3791,0.3515,0.3581,0.3411,0.3269,0.3794,0.3795,0.3795,0,0.3108,0.3136,0.3205,0.3229,0.3244,0.3299,0.3387,0.347,0.3597,0.3649,0.3757,0.3801,0.3904,0.3903,0.3978,0.3972,0.3944,0.3935,0.3931,0.3598,0.3507,0.3248,0.3258,0.3224,0.3803,0.3803,0.3802,0,0.3102,0.3136,0.3188,0.3198,0.3274,0.3306,0.3358,0.3474,0.3531,0.3664,0.3701,0.384,0.3877,0.3944,0.3919,0.3965,0.3935,0.3997,0.3697,0.3671,0.3473,0.3423,0.3434,0.4041,0.4041,0.4041,0.4042,0,0.3135,0.3132,0.317,0.3193,0.3214,0.3274,0.3334,0.341,0.3508,0.3564,0.3704,0.3743,0.3896,0.3894,0.3907,0.3763,0.3927,0.3688,0.3636,0.3513,0.3472,0.3383,0.3367,0.4037,0.4038,0.4038,0.4039,0,0.3141,0.3169,0.3188,0.3226,0.3226,0.3246,0.3299,0.3339,0.3435,0.351,0.3549,0.3672,0.3645,0.3685,0.3717,0.3673,0.3471,0.3506,0.3273,0.3194,0.2879,0.2875,0.2597,0.2555,0.3192,0.3184,0.3178,0,0.3165,0.319,0.3202,0.3188,0.32,0.3218,0.3233,0.3313,0.3352,0.3444,0.3466,0.3456,0.3424,0.3293,0.3202,0.3084,0.3114,0.2842,0.2919,0.2803,0.2768,0.27,0.2689,0.2721,0.2711,0.2703,0.2697,0,0.3183,0.3192,0.3213,0.3181,0.3168,0.3163,0.3181,0.319,0.3278,0.3309,0.3283,0.3244,0.3068,0.285,0.2643,0.2591,0.2676,0.2663,0.2681,0.2476,0.2275,0.2227,0.2795,0.2626,0.2633,0.2638,0.2642,0.2645,0.3164,0.3178,0.3191,0.3132,0.3114,0.3072,0.3022,0.3036,0.3034,0.2967,0.3044,0.2846,0.264,0.2316,0.2227,0.197,0.2083,0.1952,0.1974,0.193,0.183,0.2135,0.1819,0.1821,0.1823,0.1825,0.1827,0,0.3112,0.3134,0.3117,0.3039,0.2957,0.2981,0.2944,0.2852,0.2754,0.267,0.2577,0.2253,0.1985,0.1808,0.1529,0.1387,0.142,0.1339,0.135,0.1401,0.1803,0.1729,0.1212,0.1212,0.1212,0.1212,0.1212,0.1212,0.3083,0.3065,0.3041,0.286,0.28,0.2659,0.2597,0.2469,0.236,0.2045,0.178,0.1671,0.1541,0.1277,0.1075,0.1038,0.1059,0.0822,0.0962,0.1395,0.1462,0.1525,0.146,0.0895,0.0895,0.0542,0.0539,0.0537]},{"header":{"parameterUnit":"m.s-1","parameterCategory":2,"la1":30.2991,"la2":30.254,"lo1":-89.0895,"lo2":-89.0444,"dy":0.0017,"dx":0.0017,"nx":28,"ny":28,"refTime":"2024-07-16T03:00:00:Z","depth":"0","parameterNumber":3,"parameterNumberName":"V-component_of_CURRENTS"},"data":[0,0,0,0,0,0,0,0,0,0,0,0,0,0,0,0,0,0,0,0,0,0,0,0,0,0,0,0,0,0,0,0,0,0,0,0,0,0,0,0,0,0,0,0,0,0,0,0,0,0,0,0,0,0,0,0,0,0,0.0427,0.0427,0,0.0451,0.0451,0.0451,0.0463,0.0463,0.0464,0.0464,0.0503,0.0504,0.0505,0,0,0,0,0,0,0,0,0,0,0,0,0,0.0362,0.0363,0.0427,0.0427,0.0428,0.0451,0.0451,0.0451,0.0463,0.0463,0.0464,0.0464,0.0503,0.0504,0.0505,0,0,0,0,0,0,0,0,0,0,0,0,0,0.0387,0.0363,0.0427,0.0438,0.0439,0.0451,0.0451,0.0451,0.0463,0.0463,0.0464,0.0464,0.0503,0.0504,0.0505,0.051,0,0,0.051,0.051,0,0,0,0,0,0,0,0,0.0386,0.0389,0.0436,0.0437,0.0438,0.0455,0.0443,0.0472,0.0463,0.0452,0.0464,0.0464,0.0489,0.0492,0.0494,0.0512,0.0513,0.051,0.0511,0.0511,0.0512,0,0,0,0,0,0,0,0.0384,0.0388,0.0435,0.0436,0.0438,0.0431,0.0435,0.0448,0.0469,0.0453,0.0455,0.0459,0.049,0.0492,0.0495,0.0514,0.051,0.0511,0.0512,0.0512,0.0593,0.0594,0,0,0,0,0,0,0.0385,0.0387,0.0434,0.0436,0.0413,0.0432,0.0437,0.0449,0.0468,0.0472,0.0459,0.046,0.049,0.0493,0.0496,0.0549,0.0511,0.0512,0.0513,0.0592,0.0593,0.0595,0,0,0,0,0,0,0.0384,0.039,0.0433,0.0412,0.0418,0.0434,0.0447,0.0449,0.0458,0.0473,0.0476,0.0467,0.049,0.0494,0.0507,0.0549,0.0513,0.0514,0.059,0.0592,0.0594,0.0625,0,0,0,0,0,0,0.0382,0.0389,0.0395,0.0413,0.0419,0.0447,0.0447,0.0449,0.0461,0.0462,0.0481,0.0484,0.0491,0.0505,0.0508,0.055,0.0515,0.0589,0.0591,0.0594,0.0622,0.0628,0.0632,0,0,0,0,0,0.038,0.039,0.0395,0.0401,0.0428,0.0448,0.045,0.046,0.0461,0.0469,0.0474,0.0484,0.0524,0.0506,0.051,0.0553,0.0587,0.0591,0.0593,0.062,0.0626,0.0632,0,0,0,0,0,0,0.0371,0.0393,0.0399,0.0417,0.0434,0.045,0.0454,0.0464,0.0473,0.0472,0.0484,0.0488,0.0519,0.0527,0.0507,0.0586,0.0565,0.0569,0.0584,0.059,0.0595,0.0647,0.0517,0,0,0,0,0,0.037,0.0385,0.0404,0.0422,0.0424,0.0439,0.0446,0.0458,0.047,0.0474,0.0488,0.0508,0.0534,0.0552,0.0567,0.0601,0.0622,0.0638,0.0643,0.0647,0.0693,0.0775,0.0793,0.0605,0.0605,0.0605,0,0,0.0377,0.0389,0.04,0.0421,0.0428,0.0452,0.0444,0.0459,0.0495,0.0477,0.0516,0.0518,0.0543,0.0581,0.0599,0.0595,0.0693,0.0651,0.0654,0.0699,0.0781,0.0799,0.0816,0.0607,0.0606,0.0606,0,0,0.0395,0.04,0.0415,0.0431,0.0446,0.0458,0.0466,0.0484,0.0502,0.053,0.0536,0.0569,0.0591,0.0636,0.0658,0.0704,0.071,0.07,0.078,0.0858,0.0875,0.0891,0.0862,0.0875,0.0713,0.0713,0.0714,0,0.0396,0.0431,0.0424,0.0444,0.0471,0.0466,0.0502,0.0518,0.0545,0.0581,0.0549,0.0635,0.0634,0.0733,0.074,0.0723,0.0728,0.0749,0.0867,0.0883,0.0899,0.0867,0.0881,0.0715,0.0715,0.0715,0.0715,0,0.0431,0.0461,0.047,0.0502,0.0524,0.0552,0.0576,0.0603,0.0616,0.0646,0.0725,0.073,0.08,0.0794,0.0776,0.0895,0.0843,0.0853,0.0853,0.092,0.088,0.0894,0.0718,0.0717,0.0717,0.0716,0,0,0.0431,0.0485,0.049,0.0529,0.0563,0.0591,0.0646,0.0712,0.0778,0.0795,0.0904,0.0927,0.0942,0.0971,0.0967,0.1027,0.1085,0.0986,0.0989,0.0959,0.1185,0.1103,0.1109,0.1116,0.1121,0.1124,0.1084,0,0.0464,0.0525,0.0548,0.0625,0.0663,0.0694,0.0757,0.0816,0.086,0.0952,0.0995,0.1071,0.1008,0.1046,0.1101,0.1112,0.1138,0.1091,0.1127,0.1127,0.105,0.1131,0.1095,0.1056,0.1097,0.11,0.1101,0,0.0499,0.0537,0.0614,0.0715,0.0734,0.0781,0.09,0.0957,0.107,0.1111,0.1203,0.1229,0.1324,0.1259,0.1328,0.1298,0.1251,0.1235,0.1234,0.1178,0.1077,0.1013,0.108,0.1104,0.1123,0.1121,0.112,0,0.052,0.0598,0.0668,0.0697,0.079,0.0847,0.0904,0.1009,0.1089,0.1225,0.1306,0.1402,0.1472,0.1478,0.1413,0.1389,0.1462,0.1425,0.1294,0.1282,0.1276,0.1257,0.1389,0.1481,0.1482,0.1482,0.1482,0,0.0569,0.0628,0.0682,0.0723,0.0825,0.0876,0.1007,0.1077,0.1211,0.1336,0.1393,0.1513,0.1541,0.157,0.1487,0.143,0.1517,0.1339,0.1307,0.1271,0.1254,0.1293,0.1293,0.148,0.148,0.1481,0.1481,0,0.0606,0.064,0.0717,0.0801,0.0841,0.091,0.1058,0.116,0.1264,0.144,0.1493,0.1625,0.1654,0.1611,0.1612,0.1524,0.1462,0.1408,0.1303,0.1262,0.1167,0.1168,0.1241,0.1288,0.1287,0.1285,0.1284,0,0.0642,0.0678,0.076,0.0817,0.0863,0.0971,0.1067,0.1179,0.129,0.1503,0.1599,0.1686,0.1744,0.1682,0.1546,0.1391,0.1399,0.1264,0.1239,0.1196,0.1176,0.1164,0.12,0.1193,0.1191,0.1189,0.1188,0,0.0699,0.071,0.0772,0.088,0.0971,0.1079,0.1213,0.1301,0.1453,0.1594,0.1761,0.1819,0.1748,0.1623,0.1415,0.131,0.1294,0.1223,0.1266,0.1207,0.1126,0.1141,0.1102,0.1173,0.1174,0.1176,0.1176,0.1177,0.0737,0.0784,0.0858,0.0964,0.1061,0.1182,0.1273,0.1414,0.1577,0.1747,0.1809,0.1845,0.1696,0.1416,0.1307,0.1124,0.116,0.1079,0.1097,0.1099,0.1141,0.1015,0.1006,0.1007,0.1007,0.1008,0.1008,0,0.08,0.086,0.0956,0.1073,0.1168,0.1217,0.1376,0.1455,0.1623,0.1716,0.1807,0.1691,0.152,0.1341,0.1103,0.103,0.1037,0.102,0.1048,0.1107,0.1073,0.1069,0.0971,0.0971,0.0971,0.0971,0.0971,0.0971,0.0846,0.094,0.0985,0.1142,0.1223,0.1339,0.1413,0.1522,0.1586,0.1633,0.1585,0.156,0.1502,0.1206,0.1075,0.1041,0.1103,0.1011,0.1107,0.1109,0.1117,0.1126,0.1128,0.1044,0.1044,0.115,0.1151,0.1151]}],[{"header":{"parameterUnit":"m.s-1","parameterCategory":2,"la1":30.2991,"la2":30.254,"lo1":-89.0895,"lo2":-89.0444,"dy":0.0017,"dx":0.0017,"nx":28,"ny":28,"refTime":"2024-07-16T03:00:00:Z","depth":"2","parameterNumber":2,"parameterNumberName":"U-component_of_CURRENTS"},"data":[0,0,0,0,0,0,0,0,0,0,0,0,0,0,0,0,0,0,0,0,0,0,0,0,0,0,0,0,0,0,0,0,0,0,0,0,0,0,0,0,0,0,0,0,0,0,0,0,0,0,0,0,0,0,0,0,0,0,0.2157,0.2157,0,0.2245,0.2247,0.2249,0.2217,0.2214,0.2211,0.2208,0.2193,0.2195,0.2198,0,0,0,0,0,0,0,0,0,0,0,0,0,0.2135,0.2135,0.2157,0.2157,0.2157,0.2245,0.2247,0.2249,0.2217,0.2214,0.221,0.2207,0.2192,0.2195,0.2198,0,0,0,0,0,0,0,0,0,0,0,0,0,0.2184,0.2135,0.2157,0.2145,0.2144,0.2244,0.2247,0.225,0.2218,0.2214,0.2209,0.2205,0.2192,0.2195,0.2198,0.2305,0,0,0.2209,0.221,0,0,0,0,0,0,0,0,0.2181,0.2186,0.2146,0.2146,0.2145,0.2207,0.2233,0.226,0.2219,0.22,0.2208,0.2203,0.2185,0.2189,0.223,0.2305,0.2304,0.2209,0.2211,0.2212,0.2213,0,0,0,0,0,0,0,0.2178,0.2183,0.2201,0.2147,0.2146,0.2194,0.2196,0.224,0.2221,0.2201,0.2197,0.2193,0.2185,0.2227,0.2229,0.2304,0.2209,0.2212,0.2214,0.2215,0.2387,0.2389,0,0,0,0,0,0,0.2143,0.218,0.2198,0.2203,0.2142,0.2196,0.2199,0.2199,0.2223,0.222,0.2196,0.2191,0.2224,0.2225,0.2228,0.2307,0.2212,0.2216,0.2218,0.2384,0.2387,0.239,0,0,0,0,0,0,0.2143,0.2145,0.2195,0.2185,0.2193,0.2199,0.2201,0.2203,0.2239,0.2218,0.2215,0.2227,0.222,0.2223,0.2255,0.2307,0.2217,0.222,0.2381,0.2385,0.2389,0.2496,0,0,0,0,0,0,0.2142,0.2145,0.2161,0.2183,0.2192,0.2266,0.2204,0.2207,0.2238,0.2233,0.2245,0.2239,0.2217,0.2251,0.2259,0.231,0.2223,0.2378,0.2383,0.2387,0.2489,0.2503,0.2515,0,0,0,0,0,0.2141,0.2127,0.2162,0.2165,0.2206,0.2268,0.2281,0.2276,0.2244,0.2289,0.227,0.2238,0.2285,0.2256,0.2265,0.2318,0.2376,0.2382,0.2387,0.2483,0.25,0.2514,0,0,0,0,0,0,0.2123,0.2123,0.2161,0.2152,0.2228,0.2258,0.2284,0.2295,0.2328,0.2322,0.2281,0.2278,0.2328,0.2315,0.2283,0.2381,0.2324,0.2332,0.2394,0.241,0.2422,0.2512,0.2226,0,0,0,0,0,0.2137,0.213,0.2182,0.2195,0.2228,0.2279,0.2308,0.2333,0.2348,0.236,0.2355,0.2354,0.237,0.2376,0.24,0.2465,0.2451,0.2501,0.2514,0.2525,0.2604,0.2623,0.2645,0.2408,0.2408,0.2408,0,0,0.2144,0.2137,0.2144,0.2195,0.2249,0.2289,0.2288,0.2355,0.2376,0.2356,0.2379,0.2413,0.2399,0.2459,0.248,0.2445,0.2569,0.2532,0.2541,0.2617,0.2631,0.2655,0.2675,0.2412,0.2412,0.2411,0,0,0.2152,0.2156,0.2179,0.2211,0.2293,0.2326,0.2348,0.2419,0.244,0.2506,0.2478,0.2559,0.2563,0.2593,0.2594,0.2704,0.2642,0.2687,0.2822,0.2837,0.2858,0.2876,0.2815,0.2827,0.2684,0.2685,0.2685,0,0.2185,0.2195,0.2209,0.2227,0.2253,0.233,0.2388,0.2417,0.2488,0.2533,0.2515,0.2646,0.2638,0.273,0.2772,0.274,0.2708,0.2755,0.2855,0.2873,0.289,0.2824,0.2836,0.2691,0.269,0.2689,0.2689,0,0.2169,0.2224,0.2232,0.2272,0.2311,0.2377,0.2415,0.2478,0.2522,0.2574,0.272,0.2784,0.2863,0.2875,0.2861,0.2994,0.2915,0.2869,0.2816,0.292,0.2842,0.2853,0.2699,0.2697,0.2695,0.2694,0,0,0.2181,0.2231,0.2249,0.2294,0.2348,0.2378,0.2424,0.2531,0.2566,0.2705,0.28,0.2935,0.3039,0.3058,0.309,0.3156,0.322,0.3089,0.3086,0.303,0.3202,0.2918,0.29,0.318,0.3184,0.3187,0.3072,0,0.2226,0.2254,0.2281,0.2357,0.2388,0.2451,0.2474,0.2555,0.2637,0.2728,0.2897,0.2985,0.3068,0.3138,0.3241,0.3227,0.3267,0.3254,0.3114,0.311,0.2847,0.2911,0.2744,0.261,0.3082,0.3083,0.3085,0,0.2242,0.2239,0.2319,0.2401,0.2428,0.2474,0.2556,0.26,0.2724,0.2798,0.2995,0.3071,0.3259,0.3276,0.3398,0.3378,0.3338,0.3328,0.332,0.3052,0.2849,0.2599,0.2611,0.3101,0.31,0.3099,0.3098,0,0.2213,0.2302,0.2367,0.237,0.2438,0.2509,0.256,0.265,0.2705,0.2856,0.2938,0.3143,0.3248,0.3312,0.3324,0.3351,0.338,0.3361,0.3074,0.3048,0.2886,0.2838,0.3439,0.3439,0.3439,0.344,0.344,0,0.2219,0.2293,0.2359,0.2363,0.2447,0.2485,0.2604,0.267,0.2778,0.2866,0.3002,0.311,0.3274,0.33,0.3312,0.3203,0.3342,0.3137,0.3028,0.2902,0.286,0.3291,0.3276,0.3435,0.3436,0.3437,0.3438,0,0.2215,0.2277,0.2369,0.2433,0.2459,0.2516,0.2628,0.2669,0.2774,0.2898,0.2947,0.3084,0.3088,0.314,0.3167,0.3122,0.3052,0.2958,0.2757,0.2629,0.2719,0.271,0.2665,0.2654,0.2645,0.2638,0.2632,0,0.2235,0.2262,0.2379,0.2431,0.2494,0.2562,0.2593,0.2683,0.2716,0.2875,0.2913,0.2953,0.2933,0.2815,0.2731,0.2593,0.2765,0.233,0.2383,0.2755,0.2654,0.266,0.2663,0.2188,0.2179,0.2171,0.2165,0,0.2234,0.2314,0.2344,0.2419,0.2502,0.2552,0.2602,0.2613,0.2711,0.2749,0.2753,0.2728,0.2629,0.2393,0.219,0.2121,0.2343,0.216,0.2633,0.2377,0.2287,0.2193,0.2217,0.2098,0.2104,0.2109,0.2113,0.2116,0.2253,0.2315,0.236,0.2397,0.2496,0.2511,0.2501,0.2474,0.2462,0.2429,0.2514,0.2352,0.2305,0.1862,0.1733,0.1631,0.1811,0.1765,0.1799,0.1838,0.1771,0.1668,0.1346,0.1348,0.135,0.1352,0.1354,0,0.2231,0.2271,0.2305,0.2388,0.2408,0.2471,0.2461,0.2345,0.2216,0.2156,0.2062,0.1774,0.1537,0.1477,0.1217,0.1131,0.125,0.1079,0.1279,0.1342,0.14,0.1323,0.0773,0.0771,0.077,0.0768,0,0,0.223,0.2233,0.2196,0.2199,0.2275,0.2257,0.2224,0.2009,0.1889,0.1625,0.1469,0.1473,0.1442,0.1122,0.1039,0.0874,0.1127,0.0826,0.1291,0.1596,0.1653,0.1779,0.1724,0,0,0,0,0]},{"header":{"parameterUnit":"m.s-1","parameterCategory":2,"la1":30.2991,"la2":30.254,"lo1":-89.0895,"lo2":-89.0444,"dy":0.0017,"dx":0.0017,"nx":28,"ny":28,"refTime":"2024-07-16T03:00:00:Z","depth":"2","parameterNumber":3,"parameterNumberName":"V-component_of_CURRENTS"},"data":[0,0,0,0,0,0,0,0,0,0,0,0,0,0,0,0,0,0,0,0,0,0,0,0,0,0,0,0,0,0,0,0,0,0,0,0,0,0,0,0,0,0,0,0,0,0,0,0,0,0,0,0,0,0,0,0,0,0,0.0081,0.0081,0,0.004,0.0039,0.0038,0.0029,0.0029,0.003,0.003,0.0092,0.0093,0.0094,0,0,0,0,0,0,0,0,0,0,0,0,0,0.0087,0.0087,0.0081,0.0081,0.0081,0.004,0.0039,0.0038,0.0028,0.0029,0.003,0.0031,0.0091,0.0093,0.0094,0,0,0,0,0,0,0,0,0,0,0,0,0,0.0066,0.0087,0.0081,0.0073,0.0072,0.004,0.0039,0.0038,0.0028,0.0029,0.003,0.0031,0.0091,0.0093,0.0094,0.0087,0,0,0.0099,0.01,0,0,0,0,0,0,0,0,0.0067,0.0065,0.0075,0.0074,0.0073,0.0043,0.0064,0.0061,0.0028,0.0041,0.003,0.0031,0.0087,0.0089,0.0073,0.0089,0.0092,0.0099,0.01,0.0101,0.0102,0,0,0,0,0,0,0,0.0069,0.0067,0.0061,0.0074,0.0073,0.005,0.0048,0.0062,0.0059,0.004,0.004,0.0041,0.0087,0.0071,0.0074,0.0093,0.0099,0.0101,0.0102,0.0102,0.0197,0.0199,0,0,0,0,0,0,0.0083,0.0069,0.0063,0.006,0.0076,0.005,0.0048,0.0049,0.0056,0.0059,0.004,0.0041,0.0068,0.0072,0.0077,0.0106,0.0101,0.0103,0.0104,0.0196,0.0197,0.0199,0,0,0,0,0,0,0.0083,0.0083,0.0064,0.0066,0.0063,0.005,0.0051,0.0048,0.0035,0.0056,0.006,0.0031,0.0069,0.0075,0.0108,0.0108,0.0103,0.0105,0.0194,0.0196,0.0198,0.0142,0,0,0,0,0,0,0.0084,0.0083,0.0086,0.0067,0.0063,0.0054,0.005,0.0047,0.0036,0.0036,0.005,0.0056,0.007,0.0105,0.0109,0.011,0.0106,0.0192,0.0195,0.0198,0.0142,0.0142,0.0142,0,0,0,0,0,0.0084,0.0076,0.0086,0.0085,0.0068,0.0054,0.0049,0.0041,0.0034,0.0031,0.0051,0.0055,0.0127,0.0107,0.0112,0.0113,0.019,0.0194,0.0197,0.0142,0.0142,0.0142,0,0,0,0,0,0,0.0079,0.0074,0.0085,0.0077,0.0076,0.0054,0.0049,0.0038,0.0043,0.0059,0.0064,0.0072,0.0107,0.0126,0.0103,0.0156,0.0164,0.0168,0.012,0.0121,0.0121,0.0208,0.0107,0,0,0,0,0,0.0083,0.0072,0.0076,0.0069,0.0075,0.0062,0.0053,0.0058,0.006,0.0061,0.0059,0.0088,0.0122,0.0133,0.0167,0.018,0.0227,0.0193,0.0193,0.0192,0.0271,0.0352,0.0367,0.021,0.021,0.021,0,0,0.0084,0.0074,0.0073,0.0067,0.0067,0.0075,0.0058,0.0061,0.0059,0.0072,0.0062,0.0089,0.0132,0.0157,0.0174,0.0169,0.0239,0.0197,0.0195,0.0277,0.0357,0.0373,0.0386,0.0213,0.0212,0.0212,0,0,0.0078,0.0074,0.0076,0.0087,0.0097,0.0082,0.0085,0.0073,0.0062,0.0059,0.0087,0.0132,0.0126,0.0182,0.0205,0.0235,0.0244,0.022,0.0278,0.0351,0.0365,0.0378,0.0352,0.0364,0.021,0.021,0.021,0,0.0086,0.0096,0.0074,0.0093,0.0106,0.0087,0.0111,0.0089,0.0082,0.0089,0.0061,0.0151,0.0154,0.0255,0.0257,0.0236,0.0253,0.0254,0.035,0.0365,0.038,0.0352,0.0365,0.0208,0.0208,0.0208,0.0208,0,0.0078,0.0122,0.0126,0.014,0.0134,0.0159,0.0143,0.0132,0.0099,0.0088,0.0159,0.0197,0.0274,0.025,0.0252,0.0368,0.033,0.0339,0.0343,0.0392,0.0357,0.0372,0.0204,0.0205,0.0206,0.0207,0,0,0.0048,0.0112,0.0124,0.0178,0.018,0.0182,0.017,0.0171,0.0196,0.0186,0.0254,0.0294,0.0346,0.039,0.0419,0.0472,0.0511,0.0447,0.0452,0.0409,0.0609,0.0495,0.0499,0.0529,0.0534,0.0538,0.0502,0,0.0075,0.0135,0.0137,0.021,0.0263,0.0253,0.0245,0.0242,0.0225,0.0272,0.0339,0.0411,0.0386,0.0452,0.051,0.0557,0.057,0.0517,0.0585,0.0587,0.0471,0.0522,0.0527,0.0494,0.0518,0.052,0.0522,0,0.0084,0.014,0.0212,0.0307,0.0322,0.0337,0.0359,0.0358,0.04,0.0406,0.051,0.0552,0.0685,0.0644,0.0759,0.0726,0.0682,0.0676,0.0674,0.0633,0.0508,0.0475,0.0522,0.0548,0.0546,0.0544,0.0543,0,0.0093,0.0199,0.0258,0.0292,0.0366,0.039,0.0399,0.0409,0.0434,0.0532,0.0602,0.0725,0.0852,0.0863,0.0837,0.0808,0.0925,0.0869,0.0711,0.0696,0.076,0.0744,0.0935,0.0935,0.0935,0.0935,0.0935,0,0.0122,0.0196,0.0287,0.0342,0.0425,0.0443,0.0513,0.0528,0.0602,0.0697,0.0722,0.0867,0.0926,0.0978,0.0902,0.0867,0.0968,0.0767,0.0721,0.0723,0.0705,0.0831,0.082,0.0934,0.0934,0.0934,0.0935,0,0.0118,0.0189,0.0303,0.0411,0.0449,0.0502,0.0586,0.0639,0.0699,0.0854,0.0906,0.1015,0.1077,0.1043,0.1066,0.0965,0.0908,0.084,0.0783,0.0733,0.0592,0.0579,0.0682,0.0678,0.0676,0.0673,0.0671,0,0.0117,0.0171,0.0333,0.0429,0.049,0.0579,0.064,0.0687,0.0751,0.095,0.1043,0.1148,0.1201,0.1142,0.1018,0.0846,0.0844,0.0701,0.0664,0.0642,0.0587,0.0577,0.0568,0.0673,0.0671,0.067,0.0669,0,0.0119,0.017,0.0256,0.0471,0.0587,0.0675,0.0774,0.0833,0.0932,0.1063,0.1228,0.1279,0.1246,0.1115,0.0878,0.0767,0.0732,0.0658,0.0748,0.0718,0.0628,0.0574,0.0567,0.0655,0.0657,0.0658,0.0658,0.0659,0.0114,0.018,0.0331,0.0521,0.0656,0.0772,0.0841,0.0939,0.1056,0.1217,0.1288,0.1326,0.1232,0.0892,0.0747,0.0592,0.0604,0.0518,0.0527,0.0537,0.0525,0.0434,0.0416,0.0416,0.0416,0.0416,0.0416,0,0.0165,0.0241,0.0391,0.0618,0.0749,0.0816,0.0938,0.0984,0.1125,0.1214,0.1301,0.1137,0.0982,0.084,0.0596,0.0439,0.0477,0.0382,0.0476,0.0489,0.0501,0.0491,0.0372,0.0371,0.037,0.037,0,0,0.0213,0.0339,0.0421,0.067,0.0807,0.0933,0.0997,0.1056,0.1103,0.1143,0.1131,0.1124,0.0974,0.0773,0.0623,0.0491,0.0517,0.0461,0.0511,0.0655,0.0668,0.0593,0.0592,0,0,0,0,0]}],[{"header":{"parameterUnit":"m.s-1","parameterCategory":2,"la1":30.2991,"la2":30.254,"lo1":-89.0895,"lo2":-89.0444,"dy":0.0017,"dx":0.0017,"nx":28,"ny":28,"refTime":"2024-07-16T03:00:00:Z","depth":"4","parameterNumber":2,"parameterNumberName":"U-component_of_CURRENTS"},"data":[0,0,0,0,0,0,0,0,0,0,0,0,0,0,0,0,0,0,0,0,0,0,0,0,0,0,0,0,0,0,0,0,0,0,0,0,0,0,0,0,0,0,0,0,0,0,0,0,0,0,0,0,0,0,0,0,0,0,0.0769,0.0768,0,0.0677,0.0676,0.0674,0.069,0.0692,0.0694,0.0696,0.0769,0.0769,0.0769,0,0,0,0,0,0,0,0,0,0,0,0,0,0.0863,0.0861,0.0769,0.0768,0.0768,0.0678,0.0676,0.0674,0.0689,0.0692,0.0695,0.0697,0.0769,0.0769,0.0769,0,0,0,0,0,0,0,0,0,0,0,0,0,0.0796,0.086,0.0769,0.0769,0.0769,0.0678,0.0676,0.0673,0.0689,0.0692,0.0695,0.0698,0.0769,0.0769,0.0769,0.0702,0,0,0.0768,0.0768,0,0,0,0,0,0,0,0,0.08,0.0791,0.077,0.0769,0.0769,0.0704,0.0736,0.0693,0.0688,0.0712,0.0696,0.07,0.0764,0.0764,0.0728,0.0705,0.0708,0.0768,0.0768,0.0768,0.0768,0,0,0,0,0,0,0,0.0804,0.0795,0.0726,0.0769,0.0768,0.0742,0.0737,0.0726,0.0719,0.071,0.0713,0.0712,0.0765,0.0728,0.0731,0.0709,0.0768,0.0768,0.0768,0.0768,0.0812,0.0814,0,0,0,0,0,0,0.0829,0.0799,0.0729,0.0724,0.08,0.0739,0.0732,0.0716,0.0716,0.0719,0.0709,0.0713,0.0727,0.0731,0.0734,0.0781,0.0768,0.0768,0.0768,0.0811,0.0813,0.0814,0,0,0,0,0,0,0.0831,0.0823,0.0733,0.0766,0.0754,0.0735,0.0716,0.0713,0.0711,0.0714,0.072,0.0718,0.073,0.0734,0.0776,0.078,0.0768,0.0767,0.081,0.0812,0.0813,0.0795,0,0,0,0,0,0,0.0834,0.0824,0.082,0.0767,0.0753,0.0701,0.0714,0.0709,0.0707,0.0712,0.0722,0.073,0.0733,0.0776,0.0776,0.078,0.0767,0.0808,0.081,0.0813,0.0794,0.0797,0.0798,0,0,0,0,0,0.0837,0.0815,0.082,0.0812,0.0749,0.0701,0.069,0.0684,0.0705,0.0696,0.073,0.0731,0.0792,0.0776,0.0776,0.078,0.0807,0.081,0.0813,0.0794,0.0796,0.0798,0,0,0,0,0,0,0.0849,0.0813,0.0818,0.0787,0.0762,0.0708,0.0696,0.0694,0.07,0.0727,0.0737,0.0746,0.0794,0.079,0.0773,0.0806,0.0802,0.0805,0.0789,0.0791,0.0793,0.077,0.0767,0,0,0,0,0,0.0851,0.0824,0.0797,0.0769,0.0766,0.0736,0.0719,0.0718,0.0716,0.0721,0.0729,0.0758,0.0791,0.0798,0.0823,0.0817,0.0856,0.0827,0.0829,0.083,0.0815,0.0955,0.0968,0.0824,0.0824,0.0823,0,0,0.0849,0.0823,0.0811,0.0771,0.0752,0.0725,0.0733,0.0717,0.0695,0.073,0.0721,0.0772,0.08,0.0818,0.0836,0.0818,0.0879,0.0834,0.0834,0.0818,0.0959,0.0974,0.0986,0.0825,0.0825,0.0825,0,0,0.081,0.0813,0.0778,0.0769,0.0752,0.0729,0.0736,0.0706,0.0702,0.0698,0.0745,0.0799,0.0803,0.083,0.0844,0.0866,0.0904,0.0885,0.0848,0.0985,0.0998,0.101,0.1019,0.1032,0.0864,0.0864,0.0864,0,0.0823,0.0763,0.0761,0.0735,0.0735,0.0738,0.0719,0.0691,0.0678,0.0703,0.0706,0.0798,0.0801,0.0863,0.0852,0.0867,0.0925,0.0832,0.0988,0.1001,0.1014,0.1021,0.1036,0.0863,0.0863,0.0863,0.0863,0,0.0739,0.0727,0.0712,0.068,0.0681,0.0664,0.0658,0.0666,0.0676,0.0672,0.0752,0.0778,0.0849,0.0846,0.0831,0.0925,0.0927,0.0994,0.0978,0.1027,0.103,0.1046,0.0862,0.0863,0.0863,0.0863,0,0,0.071,0.066,0.0671,0.0673,0.0665,0.0663,0.0654,0.0659,0.0686,0.07,0.075,0.0778,0.0844,0.0864,0.0897,0.095,0.1033,0.0984,0.0992,0.0981,0.127,0.1098,0.1098,0.1164,0.1168,0.1172,0.1213,0,0.0659,0.0618,0.0597,0.0589,0.0591,0.0622,0.0618,0.0648,0.0666,0.071,0.078,0.0839,0.0837,0.089,0.0958,0.1056,0.1085,0.1009,0.1232,0.1234,0.1072,0.1116,0.1185,0.1225,0.1229,0.1231,0.1233,0,0.0592,0.059,0.0574,0.0594,0.0601,0.0593,0.0664,0.0658,0.0728,0.076,0.0862,0.0912,0.1002,0.0994,0.118,0.1154,0.1187,0.1225,0.1232,0.109,0.1095,0.1184,0.1262,0.126,0.1258,0.1256,0.1254,0,0.0587,0.058,0.0577,0.0584,0.06,0.0623,0.0639,0.0703,0.0732,0.0817,0.088,0.1007,0.1102,0.1218,0.125,0.1266,0.1415,0.1475,0.1331,0.1316,0.1465,0.1452,0.1578,0.1578,0.1578,0.1578,0.1578,0,0.0529,0.0534,0.059,0.0583,0.063,0.066,0.0694,0.0731,0.0811,0.0865,0.0937,0.1015,0.1178,0.126,0.1292,0.1334,0.1479,0.1308,0.1337,0.1444,0.143,0.1471,0.1458,0.1579,0.1579,0.1579,0.1578,0,0.0475,0.0505,0.0512,0.0569,0.061,0.0654,0.0714,0.0739,0.0836,0.092,0.0961,0.1086,0.1205,0.1267,0.1413,0.1382,0.1426,0.1379,0.1384,0.1415,0.1216,0.1203,0.1284,0.1279,0.1274,0.1271,0.1268,0,0.0422,0.0424,0.0507,0.0558,0.0571,0.0646,0.0685,0.0755,0.0783,0.0948,0.0988,0.1116,0.1177,0.1258,0.1318,0.1344,0.1318,0.1291,0.1321,0.1177,0.1198,0.1191,0.1183,0.1261,0.1259,0.1258,0.1257,0,0.0326,0.0361,0.0362,0.0496,0.0556,0.06,0.066,0.0692,0.0787,0.0887,0.1009,0.1055,0.1148,0.122,0.1192,0.1217,0.1307,0.1246,0.1257,0.1285,0.115,0.1173,0.1171,0.1242,0.1244,0.1245,0.1246,0,0.0251,0.0261,0.0319,0.0426,0.0493,0.055,0.0578,0.0647,0.0711,0.0894,0.0928,0.106,0.1167,0.1148,0.1145,0.1127,0.1145,0.1111,0.113,0.1147,0.1072,0.0878,0.0907,0,0,0,0,0,0.0209,0.023,0.0281,0.0366,0.0404,0.0481,0.0567,0.06,0.0709,0.0779,0.0861,0.0934,0.0983,0.1035,0.0995,0.1039,0.1105,0.0977,0.1066,0.1157,0.1175,0.1093,0,0,0,0,0,0,0.0192,0.0209,0.0254,0.0297,0.0347,0.0396,0.0455,0.0529,0.0576,0.0711,0.0759,0.0845,0.0911,0.1011,0.0976,0.0978,0.1003,0.1038,0.1034,0.1147,0.1163,0.1177,0.1099,0,0,0,0,0]},{"header":{"parameterUnit":"m.s-1","parameterCategory":2,"la1":30.2991,"la2":30.254,"lo1":-89.0895,"lo2":-89.0444,"dy":0.0017,"dx":0.0017,"nx":28,"ny":28,"refTime":"2024-07-16T03:00:00:Z","depth":"4","parameterNumber":3,"parameterNumberName":"V-component_of_CURRENTS"},"data":[0,0,0,0,0,0,0,0,0,0,0,0,0,0,0,0,0,0,0,0,0,0,0,0,0,0,0,0,0,0,0,0,0,0,0,0,0,0,0,0,0,0,0,0,0,0,0,0,0,0,0,0,0,0,0,0,0,0,0.0096,0.0096,0,0.0125,0.0125,0.0125,0.0108,0.0107,0.0106,0.0106,0.0089,0.0089,0.009,0,0,0,0,0,0,0,0,0,0,0,0,0,0.005,0.0051,0.0096,0.0096,0.0097,0.0125,0.0125,0.0125,0.0108,0.0107,0.0106,0.0106,0.0089,0.0089,0.009,0,0,0,0,0,0,0,0,0,0,0,0,0,0.0071,0.0051,0.0096,0.0094,0.0094,0.0125,0.0125,0.0125,0.0108,0.0107,0.0106,0.0105,0.0089,0.0089,0.009,0.0109,0,0,0.009,0.009,0,0,0,0,0,0,0,0,0.007,0.0073,0.0093,0.0094,0.0094,0.0114,0.0103,0.0118,0.0108,0.01,0.0106,0.0105,0.0096,0.0095,0.01,0.0108,0.0107,0.009,0.009,0.009,0.009,0,0,0,0,0,0,0,0.0069,0.0071,0.0105,0.0094,0.0095,0.01,0.0102,0.0106,0.0099,0.01,0.01,0.0108,0.0095,0.01,0.0099,0.0107,0.009,0.009,0.009,0.009,0.009,0.009,0,0,0,0,0,0,0.007,0.007,0.0104,0.0106,0.0083,0.0102,0.0103,0.0106,0.01,0.01,0.0108,0.0107,0.01,0.0099,0.0098,0.0118,0.009,0.009,0.0091,0.009,0.009,0.009,0,0,0,0,0,0,0.0069,0.0073,0.0103,0.0091,0.0095,0.0104,0.0107,0.0108,0.0115,0.0108,0.0105,0.0116,0.0099,0.0098,0.0096,0.0117,0.0091,0.0091,0.0091,0.009,0.009,0.0158,0,0,0,0,0,0,0.0068,0.0072,0.0075,0.0091,0.0096,0.0127,0.0108,0.0109,0.0122,0.012,0.0113,0.0111,0.0098,0.0096,0.0097,0.0116,0.0091,0.0091,0.0091,0.009,0.0156,0.016,0.0163,0,0,0,0,0,0.0066,0.0078,0.0075,0.0079,0.01,0.0129,0.0132,0.0133,0.0124,0.0134,0.0118,0.0111,0.0095,0.0097,0.0097,0.0117,0.0091,0.0091,0.009,0.0154,0.0159,0.0163,0,0,0,0,0,0,0.0061,0.0078,0.0075,0.009,0.011,0.0127,0.0139,0.014,0.0138,0.0132,0.0117,0.0114,0.0114,0.0104,0.0106,0.0112,0.0089,0.0089,0.0137,0.0142,0.0146,0.013,0.0091,0,0,0,0,0,0.0062,0.0075,0.0092,0.0108,0.0116,0.0128,0.0139,0.0142,0.0146,0.0145,0.0147,0.0132,0.0114,0.0118,0.0104,0.0122,0.0092,0.0129,0.0133,0.0137,0.0121,0.0094,0.0094,0.0089,0.0089,0.0089,0,0,0.0067,0.0079,0.0086,0.0108,0.012,0.0146,0.0132,0.0155,0.0176,0.0143,0.0171,0.0147,0.0117,0.0124,0.0125,0.0122,0.0126,0.0137,0.014,0.0122,0.0094,0.0094,0.0095,0.0089,0.0089,0.0089,0,0,0.0091,0.0091,0.011,0.0139,0.0164,0.0163,0.0173,0.0197,0.0203,0.0225,0.0192,0.017,0.0184,0.0152,0.0137,0.0152,0.0139,0.0164,0.0187,0.0162,0.0163,0.0162,0.0142,0.014,0.0177,0.0177,0.0178,0,0.0091,0.0124,0.0123,0.0163,0.0181,0.0174,0.0201,0.0216,0.024,0.0233,0.024,0.0205,0.0187,0.0158,0.0164,0.0161,0.0153,0.0179,0.0169,0.0168,0.0166,0.0146,0.0142,0.0181,0.018,0.018,0.018,0,0.0143,0.0173,0.0193,0.0226,0.0238,0.0271,0.028,0.0295,0.0294,0.0293,0.0277,0.025,0.022,0.022,0.0202,0.0183,0.0182,0.0172,0.0162,0.0171,0.0149,0.0144,0.0185,0.0184,0.0183,0.0182,0,0,0.0129,0.0208,0.0216,0.0241,0.0277,0.0286,0.0312,0.0311,0.0308,0.0327,0.0314,0.0287,0.026,0.0238,0.0214,0.0199,0.019,0.0196,0.0194,0.0185,0.015,0.0147,0.0141,0.0196,0.0195,0.0195,0.0145,0,0.0165,0.0244,0.0263,0.0315,0.0348,0.0348,0.037,0.0366,0.0351,0.0343,0.0302,0.028,0.0274,0.0257,0.0242,0.0197,0.0177,0.0204,0.0132,0.013,0.0134,0.0135,0.0192,0.0141,0.014,0.0139,0.0138,0,0.0205,0.0253,0.0316,0.0356,0.0365,0.0385,0.037,0.0395,0.037,0.0361,0.0327,0.029,0.0258,0.0251,0.0195,0.0225,0.0186,0.0155,0.0153,0.0116,0.0117,0.0122,0.0128,0.0129,0.013,0.013,0.0131,0,0.0198,0.0275,0.0316,0.0347,0.0397,0.0401,0.0409,0.0393,0.0402,0.0363,0.0354,0.03,0.0287,0.0236,0.0184,0.0196,0.0119,0.0122,0.0075,0.0074,0.0063,0.0063,0.0059,0.0059,0.0059,0.0059,0.0059,0,0.0231,0.0266,0.0321,0.0363,0.0387,0.041,0.0414,0.0418,0.0412,0.0409,0.0367,0.0348,0.0287,0.0237,0.0182,0.0122,0.0119,0.0066,0.0057,0.0095,0.0099,0.0061,0.0062,0.0057,0.0058,0.0058,0.0058,0,0.0232,0.0277,0.0334,0.039,0.0399,0.0418,0.0445,0.0443,0.0452,0.0445,0.0438,0.0394,0.0343,0.0267,0.0174,0.0129,0.0053,0.0021,0.0067,0.0062,0.0026,0.0031,-0.0029,-0.0029,-0.003,-0.003,-0.0031,0,0.0241,0.028,0.0355,0.0377,0.0405,0.0434,0.0448,0.0464,0.0459,0.047,0.046,0.0417,0.0375,0.026,0.0173,0.0057,0.0036,-0.001,0.0003,0.0017,0.0014,0.002,0.0025,-0.0031,-0.0032,-0.0032,-0.0032,0,0.0255,0.0286,0.0333,0.0402,0.042,0.0439,0.046,0.0464,0.0478,0.0489,0.0481,0.0421,0.0358,0.0264,0.0172,0.0084,0.002,-0.0015,-0.0015,-0.0003,0.0013,0.0012,0.0018,-0.0034,-0.0033,-0.0033,-0.0033,0,0.025,0.0281,0.0352,0.0397,0.0427,0.0432,0.0448,0.0454,0.0465,0.0483,0.0476,0.0424,0.0396,0.0276,0.0186,0.0107,0.0089,0.0055,0.0051,0.0052,0.0089,0.0123,0.0094,0,0,0,0,0,0.0244,0.0277,0.0335,0.0372,0.0406,0.0422,0.0444,0.0453,0.0465,0.0467,0.0482,0.0425,0.0324,0.0274,0.0197,0.0154,0.0052,0.0057,0.0006,-0.0044,-0.0042,-0.0013,0,0,0,0,0,0,0.0231,0.0287,0.0329,0.0344,0.0362,0.0379,0.0395,0.0409,0.0413,0.0436,0.0388,0.039,0.0289,0.0372,0.0192,0.0167,0.012,0.0017,0.0015,-0.0045,-0.0043,-0.0041,-0.0011,0,0,0,0,0]}]]